Location: Capelle
(50.3413°N, 1.9974°E)
Time: 05:53:02
(UTC+00:00)

SL-16 R/B - Pass Details

Date: 12 January 2026
Orbit: 841 x 846 km, 71.0° (Epoch: 18 February)

Event Time Altitude Azimuth Distance (km) Brightness Sun altitude
Rises 19:33:16 0° 269° (W) 3,400 6.5 -31.1°
Reaches altitude 10° 19:36:42 10° 290° (WNW) 2,468 5.4 -31.6°
Maximum altitude 19:40:11 16° 329° (NNW) 2,049 4.5 -32.2°
Enters shadow 19:42:18 14° 354° (N) 2,212 4.4 -32.5°
